�������l�o���
Date,Time,MP-1(��Sv/h),MP-2(��Sv/h),MP-3(��Sv/h),MP-4(��Sv/h),MP-5(��Sv/h),MP-6(��Sv/h),MP-7(��Sv/h),MP-8(��Sv/h),����,����(m/s),���J
2022/05/18,00:00,0.553,0.821,0.529,0.997,0.701,0.341,0.585,0.554,��쐼,1.2,��
2022/05/18,00:10,0.553,0.817,0.530,0.998,0.703,0.341,0.583,0.555,��쐼,1.7,��
2022/05/18,00:20,0.555,0.819,0.529,0.996,0.702,0.341,0.586,0.554,��,1.7,��
2022/05/18,00:30,0.554,0.819,0.530,0.998,0.701,0.341,0.586,0.555,��,2.2,��
2022/05/18,00:40,0.554,0.817,0.528,0.998,0.703,0.342,0.585,0.555,�쐼,2.2,��
2022/05/18,00:50,0.553,0.817,0.528,0.999,0.701,0.341,0.586,0.554,�쐼,2.3,��
2022/05/18,01:00,0.555,0.816,0.528,0.996,0.700,0.341,0.586,0.554,��쐼,1.9,��
2022/05/18,01:10,0.552,0.820,0.530,0.997,0.701,0.340,0.586,0.555,��쐼,2.0,��
2022/05/18,01:20,0.552,0.816,0.529,0.997,0.702,0.342,0.587,0.554,��쐼,2.2,��
2022/05/18,01:30,0.554,0.816,0.529,0.995,0.702,0.340,0.586,0.555,�쐼,2.0,��
2022/05/18,01:40,0.552,0.819,0.528,0.997,0.701,0.340,0.586,0.555,��쐼,2.0,��
2022/05/18,01:50,0.553,0.818,0.528,0.995,0.702,0.341,0.585,0.555,��쐼,1.7,��
2022/05/18,02:00,0.554,0.819,0.528,0.994,0.702,0.340,0.584,0.553,��쐼,2.2,��
2022/05/18,02:10,0.553,0.817,0.530,0.996,0.703,0.340,0.585,0.552,��쐼,2.2,��
2022/05/18,02:20,0.554,0.817,0.529,0.997,0.702,0.340,0.585,0.554,�쐼,2.0,��
2022/05/18,02:30,0.553,0.816,0.528,0.996,0.700,0.340,0.586,0.554,���쐼,1.4,��
2022/05/18,02:40,0.553,0.818,0.531,0.996,0.701,0.342,0.586,0.553,���k��,1.5,��
2022/05/18,02:50,0.553,0.817,0.527,0.997,0.702,0.341,0.586,0.555,�k��,1.7,��
2022/05/18,03:00,0.554,0.817,0.531,0.997,0.702,0.342,0.586,0.554,�k,1.5,��
2022/05/18,03:10,0.552,0.815,0.528,0.999,0.702,0.340,0.585,0.555,�k��,2.0,��
2022/05/18,03:20,0.552,0.818,0.529,0.998,0.702,0.340,0.587,0.552,�k��,3.1,��
2022/05/18,03:30,0.553,0.818,0.529,0.998,0.703,0.342,0.585,0.552,�k��,2.3,��
2022/05/18,03:40,0.553,0.818,0.528,0.997,0.701,0.341,0.583,0.554,�k��,2.6,��
2022/05/18,03:50,0.553,0.817,0.529,0.997,0.703,0.341,0.586,0.554,�k��,2.6,��
2022/05/18,04:00,0.554,0.818,0.528,0.996,0.703,0.340,0.584,0.553,�k��,2.2,��
2022/05/18,04:10,0.551,0.819,0.528,0.996,0.700,0.341,0.586,0.553,���k��,2.0,��
2022/05/18,04:20,0.551,0.817,0.528,0.996,0.701,0.340,0.586,0.554,��,2.3,��
2022/05/18,04:30,0.553,0.815,0.529,0.996,0.701,0.340,0.583,0.554,��,2.3,��
2022/05/18,04:40,0.552,0.818,0.529,0.998,0.702,0.341,0.585,0.553,��,2.0,��
2022/05/18,04:50,0.551,0.818,0.528,0.997,0.701,0.341,0.584,0.553,��,2.0,��
2022/05/18,05:00,0.553,0.816,0.529,0.998,0.702,0.340,0.586,0.554,��,1.4,��
2022/05/18,05:10,0.553,0.816,0.528,0.997,0.701,0.340,0.585,0.554,��쐼,1.2,��
2022/05/18,05:20,0.550,0.817,0.528,1.000,0.702,0.339,0.584,0.554,���쐼,0.8,��
2022/05/18,05:30,0.552,0.817,0.529,0.999,0.702,0.340,0.584,0.554,��쐼,0.6,��
2022/05/18,05:40,0.552,0.817,0.529,0.997,0.701,0.341,0.585,0.554,��,1.2,��
2022/05/18,05:50,0.553,0.816,0.527,0.997,0.700,0.341,0.585,0.555,��쐼,1.2,��
2022/05/18,06:00,0.551,0.819,0.530,0.997,0.703,0.340,0.585,0.554,�쐼,1.2,��
2022/05/18,06:10,0.552,0.819,0.529,0.998,0.702,0.341,0.586,0.556,��,1.2,��
2022/05/18,06:20,0.552,0.818,0.529,0.996,0.703,0.341,0.585,0.554,��쐼,1.4,��
2022/05/18,06:30,0.553,0.818,0.528,0.994,0.705,0.340,0.587,0.554,��,0.9,��
2022/05/18,06:40,0.554,0.817,0.528,0.997,0.704,0.342,0.586,0.554,��,0.9,��
2022/05/18,06:50,0.553,0.818,0.531,0.996,0.703,0.342,0.586,0.555,�쐼,1.1,��
2022/05/18,07:00,0.554,0.817,0.530,0.997,0.703,0.340,0.585,0.555,�쐼,0.9,��
2022/05/18,07:10,0.553,0.817,0.531,0.997,0.704,0.341,0.588,0.554,���쐼,0.8,��
2022/05/18,07:20,0.553,0.819,0.528,0.998,0.702,0.339,0.587,0.555,���쐼,0.6,��
2022/05/18,07:30,0.556,0.817,0.531,0.997,0.703,0.340,0.586,0.554,��,0.9,��
2022/05/18,07:40,0.553,0.819,0.531,0.997,0.702,0.341,0.587,0.554,��,0.6,��
2022/05/18,07:50,0.555,0.817,0.530,0.998,0.702,0.340,0.588,0.556,��,0.6,��
2022/05/18,08:00,0.556,0.817,0.530,0.998,0.704,0.338,0.587,0.555,���k��,1.2,��
2022/05/18,08:10,0.555,0.817,0.531,1.000,0.704,0.340,0.589,0.554,-,CALM,��
2022/05/18,08:20,0.556,0.818,0.531,0.999,0.703,0.340,0.587,0.554,-,CALM,��
2022/05/18,08:30,0.556,0.817,0.532,0.999,0.704,0.340,0.587,0.552,-,CALM,��
2022/05/18,08:40,0.556,0.817,0.532,1.001,0.703,0.339,0.588,0.553,�k�k��,0.6,��
2022/05/18,08:50,0.554,0.817,0.531,0.999,0.704,0.341,0.586,0.552,-,CALM,��
2022/05/18,09:00,0.554,0.818,0.532,0.999,0.704,0.339,0.585,0.553,-,CALM,��
2022/05/18,09:10,0.555,0.820,0.532,1.001,0.705,0.340,0.584,0.554,��,1.2,��
2022/05/18,09:20,0.556,0.818,0.530,1.001,0.705,0.341,0.585,0.554,��,1.5,��
2022/05/18,09:30,0.556,0.821,0.530,1.002,0.706,0.341,0.587,0.553,��,1.7,��
2022/05/18,09:40,0.557,0.821,0.529,1.002,0.703,0.340,0.587,0.555,���쓌,2.9,��
2022/05/18,09:50,0.557,0.823,0.532,1.001,0.706,0.341,0.586,0.553,���쓌,2.6,��
2022/05/18,10:00,0.557,0.820,0.532,1.003,0.706,0.339,0.587,0.553,���쓌,2.8,��
2022/05/18,10:10,0.556,0.823,0.530,1.002,0.706,0.340,0.586,0.554,���쓌,3.1,��
2022/05/18,10:20,0.558,0.823,0.533,1.001,0.705,0.343,0.587,0.554,�쓌,2.6,��
2022/05/18,10:30,0.557,0.821,0.533,1.003,0.706,0.342,0.586,0.554,�쓌,3.6,��
2022/05/18,10:40,0.558,0.823,0.533,1.001,0.706,0.341,0.587,0.554,�쓌,4.1,��
2022/05/18,10:50,0.559,0.819,0.534,-,0.709,0.341,0.588,0.554,�쓌,3.5,��
2022/05/18,11:00,0.559,0.824,0.531,-,0.708,0.340,0.587,0.554,�쓌,3.1,��
2022/05/18,11:10,0.558,0.824,0.533,-,0.709,0.341,0.587,0.554,�쓌,3.8,��
2022/05/18,11:20,0.557,0.826,0.534,-,0.709,0.342,0.586,0.554,�쓌,3.5,��
2022/05/18,11:30,0.560,0.825,0.535,-,0.708,0.341,0.588,0.555,�쓌,3.3,��
2022/05/18,11:40,0.560,0.826,0.533,-,0.711,0.342,0.587,0.555,�쓌,2.9,��
2022/05/18,11:50,0.559,0.828,0.534,-,0.712,0.341,0.587,0.556,�쓌,3.4,��
2022/05/18,12:00,0.559,0.827,0.535,-,0.711,0.341,0.588,0.557,�쓌,3.9,��
2022/05/18,12:10,0.561,0.827,0.534,-,0.712,0.344,0.588,0.556,�쓌,3.7,��
2022/05/18,12:20,0.560,0.829,0.534,-,0.712,0.341,0.587,0.556,��쓌,4.1,��
2022/05/18,12:30,0.561,0.829,0.535,-,0.711,0.342,0.588,0.556,�쓌,4.5,��
2022/05/18,12:40,0.561,0.829,0.536,-,0.711,0.341,0.591,0.556,��쓌,3.4,��
2022/05/18,12:50,0.561,0.828,0.535,-,0.712,0.342,0.591,0.556,�쓌,4.2,��
2022/05/18,13:00,0.562,0.830,0.536,-,0.712,0.343,0.590,0.557,�쓌,4.7,��
2022/05/18,13:10,0.562,0.828,0.535,-,0.712,0.342,0.589,0.556,��쓌,4.8,��
2022/05/18,13:20,0.560,0.828,0.536,-,0.712,0.342,0.591,0.555,��쓌,4.6,��
2022/05/18,13:30,0.560,0.829,0.536,-,0.714,0.342,0.590,0.556,�쓌,4.3,��
2022/05/18,13:40,0.562,0.828,0.536,-,0.713,0.342,0.590,0.556,�쓌,2.6,��
2022/05/18,13:50,0.560,0.830,0.536,-,0.714,0.343,0.589,0.555,�쓌,3.2,��
2022/05/18,14:00,0.561,0.829,0.537,1.002,0.714,0.341,0.590,0.557,�쓌,4.2,��
2022/05/18,14:10,0.561,0.829,0.536,1.002,0.715,0.342,0.590,0.558,-,CALM,��
2022/05/18,14:20,0.563,0.830,0.538,1.005,0.715,0.342,0.590,0.555,��,3.7,��
2022/05/18,14:30,0.563,0.830,0.537,1.005,0.714,0.341,0.590,0.557,��,2.0,��
2022/05/18,14:40,0.562,0.831,0.536,1.003,0.715,0.342,0.591,0.556,��,2.0,��
2022/05/18,14:50,0.563,0.831,0.538,1.007,0.715,0.341,0.590,0.556,��,2.0,��
2022/05/18,15:00,0.564,0.832,0.537,1.006,0.715,0.342,0.590,0.556,��,1.5,��
2022/05/18,15:10,0.565,0.832,0.539,1.006,0.715,0.341,0.590,0.558,��,3.2,��
2022/05/18,15:20,0.563,0.833,0.536,1.005,0.716,0.343,0.590,0.557,��,5.7,��
2022/05/18,15:30,0.563,0.829,0.536,1.005,0.716,0.342,0.591,0.557,��쓌,3.4,��
2022/05/18,15:40,0.564,0.831,0.538,1.007,0.716,0.343,0.589,0.557,��,4.3,��
2022/05/18,15:50,0.562,0.833,0.537,1.008,0.716,0.343,0.590,0.557,��쓌,6.1,��
2022/05/18,16:00,0.563,0.833,0.537,1.006,0.716,0.344,0.590,0.557,��,7.1,��
2022/05/18,16:10,0.565,0.833,0.538,1.006,0.716,0.344,0.589,0.556,��,7.2,��
2022/05/18,16:20,0.564,0.833,0.538,1.007,0.715,0.343,0.590,0.558,��쓌,7.8,��
2022/05/18,16:30,0.566,0.833,0.537,1.008,0.717,0.342,0.590,0.558,��쓌,8.4,��
2022/05/18,16:40,0.563,0.833,0.539,1.008,0.716,0.343,0.589,0.559,��쓌,7.3,��
2022/05/18,16:50,0.564,0.833,0.539,1.009,0.716,0.343,0.590,0.557,��쓌,8.4,��
2022/05/18,17:00,0.564,0.835,0.538,1.007,0.716,0.342,0.590,0.558,��쓌,8.5,��
2022/05/18,17:10,0.565,0.836,0.538,1.006,0.716,0.343,0.590,0.558,��쓌,7.8,��
2022/05/18,17:20,0.565,0.835,0.539,1.006,0.717,0.344,0.590,0.558,��쓌,7.5,��
2022/05/18,17:30,0.565,0.834,0.537,1.005,0.718,0.343,0.589,0.558,��,7.3,��
2022/05/18,17:40,0.564,0.837,0.539,1.009,0.715,0.344,0.590,0.558,��,6.6,��
2022/05/18,17:50,0.565,0.836,0.537,1.008,0.716,0.344,0.589,0.559,��,7.1,��
2022/05/18,18:00,0.564,0.836,0.539,1.008,0.716,0.343,0.591,0.559,��,8.7,��
2022/05/18,18:10,0.565,0.835,0.537,1.007,0.716,0.345,0.589,0.559,��쓌,7.9,��
2022/05/18,18:20,0.565,0.837,0.539,1.007,0.715,0.343,0.589,0.558,��쓌,8.2,��
2022/05/18,18:30,0.563,0.841,0.537,1.010,0.717,0.344,0.587,0.560,��쓌,8.2,��
2022/05/18,18:40,0.564,0.839,0.536,1.010,0.716,0.344,0.588,0.560,��쓌,8.8,��
2022/05/18,18:50,0.566,0.836,0.538,1.010,0.717,0.345,0.589,0.561,��,7.8,��
2022/05/18,19:00,0.565,0.837,0.539,1.010,0.716,0.344,0.589,0.559,��,7.7,��
2022/05/18,19:10,0.565,0.839,0.538,1.009,0.718,0.344,0.589,0.560,��,7.3,��
2022/05/18,19:20,0.566,0.840,0.538,1.011,0.717,0.344,0.590,0.560,��,7.1,��
2022/05/18,19:30,0.567,0.838,0.538,1.011,0.719,0.344,0.589,0.560,��,6.5,��
2022/05/18,19:40,0.567,0.840,0.540,1.011,0.718,0.344,0.592,0.558,��쐼,5.6,��
2022/05/18,19:50,0.568,0.837,0.542,1.012,0.718,0.344,0.591,0.561,��,4.9,��
2022/05/18,20:00,0.570,0.839,0.539,1.010,0.719,0.345,0.591,0.559,��,4.7,��
2022/05/18,20:10,0.571,0.839,0.540,1.013,0.718,0.344,0.591,0.560,��쐼,5.3,��
2022/05/18,20:20,0.572,0.838,0.540,1.012,0.719,0.344,0.591,0.559,��쐼,5.2,��
2022/05/18,20:30,0.570,0.839,0.538,1.013,0.720,0.346,0.591,0.560,��쐼,4.0,��
2022/05/18,20:40,0.571,0.839,0.542,1.011,0.720,0.345,0.593,0.560,��쐼,4.4,��
2022/05/18,20:50,0.572,0.838,0.540,1.008,0.719,0.345,0.591,0.559,��,4.9,��
2022/05/18,21:00,0.571,0.839,0.539,1.011,0.721,0.345,0.591,0.560,��,4.9,��
2022/05/18,21:10,0.568,0.838,0.539,1.013,0.718,0.345,0.592,0.560,��쐼,4.1,��
2022/05/18,21:20,0.567,0.836,0.540,1.012,0.719,0.345,0.592,0.560,��,4.7,��
2022/05/18,21:30,0.568,0.839,0.540,1.011,0.720,0.345,0.592,0.558,��,5.5,��
2022/05/18,21:40,0.567,0.837,0.541,1.012,0.719,0.346,0.593,0.561,��,6.8,��
2022/05/18,21:50,0.566,0.836,0.539,1.012,0.720,0.345,0.593,0.559,��,6.3,��
2022/05/18,22:00,0.568,0.836,0.540,1.012,0.720,0.345,0.592,0.560,��쐼,6.1,��
2022/05/18,22:10,0.568,0.838,0.540,1.010,0.719,0.345,0.591,0.560,��쐼,5.3,��
2022/05/18,22:20,0.568,0.837,0.540,1.011,0.719,0.346,0.594,0.559,��쐼,6.2,��
2022/05/18,22:30,0.565,0.839,0.540,1.012,0.720,0.344,0.593,0.559,��쐼,6.3,��
2022/05/18,22:40,0.569,0.837,0.539,1.011,0.719,0.345,0.593,0.560,��쐼,5.7,��
2022/05/18,22:50,0.567,0.837,0.540,1.012,0.719,0.344,0.593,0.559,��,3.8,��
2022/05/18,23:00,0.567,0.839,0.540,1.010,0.719,0.346,0.593,0.558,��,3.1,��
2022/05/18,23:10,0.566,0.836,0.539,1.012,0.720,0.345,0.595,0.558,��쐼,4.3,��
2022/05/18,23:20,0.569,0.837,0.539,1.011,0.720,0.346,0.592,0.558,��쐼,4.3,��
2022/05/18,23:30,0.567,0.837,0.539,1.012,0.718,0.344,0.592,0.559,��쐼,4.2,��
2022/05/18,23:40,0.566,0.837,0.539,1.012,0.719,0.345,0.593,0.560,��쐼,4.0,��
2022/05/18,23:50,0.566,0.837,0.538,1.013,0.719,0.346,0.594,0.561,��쐼,3.0,��
